Regional Weather Roundup
Issued by NWS

Home | Current Version | Previous Version | Graphics & Text | Print | Product List | Glossary On
Versions: 1 2 3 4 5 6 7 8 9 10 11 12 13 14 15 16 17 18 19 20 21 22 23 24 25 26 27 28 29 30 31 32 33 34 35 36 37 38 39 40 41 42 43 44 45 46 47 48 49 50
000
ASUS43 KFSD 280802
RWRSD

WEATHER ROUNDUP FOR SOUTH DAKOTA
NATIONAL WEATHER SERVICE SIOUX FALLS SD
300 AM CDT MON MAY 28 2018

NOTE: "FAIR" INDICATES FEW OR NO CLOUDS BELOW 12,000 FEET WITH NO
SIGNIFICANT WEATHER AND/OR OBSTRUCTIONS TO VISIBILITY.


SDZ001>005-009-010-012>017-280900-
NORTHWEST AND NORTH CENTRAL SOUTH DAKOTA

CITY           SKY/WX    TMP DP  RH WIND       PRES   REMARKS
BUFFALO          N/A     66  58  75 E10       29.96F
FAITH            N/A     60  60 100 N10G28    29.92F
MOBRIDGE       CLOUDY    69  63  81 NW3       29.92S
$$

SDZ012>016-024>037-041>051-057-063-072>074-280900-
SOUTHWEST AND SOUTH CENTRAL SOUTH DAKOTA

CITY           SKY/WX    TMP DP  RH WIND       PRES   REMARKS
RAPID CTY ARPT CLOUDY    58  55  90 SE8       29.98R
PIERRE         CLOUDY    66  60  81 N13G24    29.91F
CUSTER         CLOUDY    51  49  92 MISG      30.05R
ELLSWORTH AFB  CLOUDY    59  59 100 SE9       29.96R
PHILIP         CLOUDY    61  61 100 SW6       29.96R
PINE RIDGE     CLOUDY    58  57  97 E6        29.99S
SPEARFISH      LGT RAIN  61  55  82 CALM      29.97F
WINNER         PTSUNNY   68  57  68 W6        29.96R
$$

SDZ004>011-016>023-039-040-280900-
NORTHEAST SOUTH DAKOTA

CITY           SKY/WX    TMP DP  RH WIND       PRES   REMARKS
ABERDEEN       MOCLDY    72  62  71 NW10      29.86R
WATERTOWN      CLOUDY    72  61  68 S8        29.84R
BROOKINGS      CLOUDY    74  58  57 S8        29.87R
SISSETON         N/A     70  64  81 NW7       29.81R
$$

SDZ017-020-022-023-036>040-048>070-280900-
SOUTHEAST SOUTH DAKOTA

CITY           SKY/WX    TMP DP  RH WIND       PRES   REMARKS
SIOUX FALLS    CLOUDY    78  58  49 VRB6      29.88R
HURON          CLOUDY    70  62  76 W13       29.87R
CHAMBERLAIN    CLOUDY    73  60  65 NW8       29.92F
MITCHELL       CLOUDY    74  65  73 NW13      29.89R
YANKTON        CLOUDY    79  58  48 SW12      29.91R
$$

ABBREVIATIONS USED IN REMARKS
   TC - TEMPERATURE IN CELSIUS
  WCI - WIND CHILL INDEX
   HX - HEAT INDEX
  VSB - VISIBILITY




USA.gov is the U.S. government's official web portal to all federal, state and local government web resources and services.